Tracking 18851 objects as of 24-Nov-2017
HD Live streaming from Space Station
objects crossing your sky now

FENGYUN 1C DEB

Track FENGYUN 1C DEB now!
10-day predictions


NORAD ID: 30304
Int'l Code: 1999-025ZR
Perigee: 821.0 km
Apogee: 950.1 km
Inclination: 99.2 °
Period: 102.5 minutes
Semi major axis: 7256 km
RCS: 0.0114 m2 (small)
Launch date: May 10, 1999
Source: People's Republic of China (PRC)
Launch site: Taiyaun Space Center, China (TSC)

Note: This is SATELLITE DEBRIS
aabbcc
Your satellite tracking list
Your tracking list is empty




NASA's NSSDC Master Catalog

Two Line Element Set (TLE):
1 30304U 99025ZR  17327.95723212 +.00000466 +00000-0 +31043-3 0  9996
2 30304 099.2078 325.5197 0088976 322.9202 036.5838 14.04452383554480
Source of the keplerian elements: AFSPC